DW0416 Weather Reports


Display with metric or nautical units.
time (UTC)temp
F
wind
direction
speed
MPH
gust
MPH
rain 1hr
in
rain 24hr
in
rain mn
in
humidity
%
barometer
mb
20260509043024 58 161 1.0 5.0 0.00 0.00 0.00 32 1016.2
20260509041535 57 86 1.0 4.0 0.00 0.00 0.00 33 1016.4
20260509040010 57 86 1.0 4.0 0.00 0.00 0.00 35 1016.5
20260509034514 58 110 4.0 7.0 0.00 0.00 0.00 34 1016.4
20260509033027 59 103 1.0 6.0 0.00 0.00 0.00 34 1016.1
20260509031531 58 105 1.0 6.0 0.00 0.00 0.00 34 1016.1
20260509030028 58 82 3.0 5.0 0.00 0.00 0.00 33 1016.1
20260509024515 58 122 0.0 2.0 0.00 0.00 0.00 33 1016.1
20260509023026 59 34 3.0 6.0 0.00 0.00 0.00 32 1016.1
20260509021522 60 51 1.0 5.0 0.00 0.00 0.00 31 1015.8
20260509020025 61 30 2.0 3.0 0.00 0.00 0.00 30 1015.8
20260509014529 62 23 1.0 3.0 0.00 0.00 0.00 30 1016.0
20260509013014 64 307 2.0 3.0 0.00 0.00 0.00 30 1016.0
20260509011527 64 287 1.0 4.0 0.00 0.00 0.00 29 1016.0
20260509010008 64 283 2.0 4.0 0.00 0.00 0.00 27 1016.1
20260509004524 64 289 1.0 5.0 0.00 0.00 0.00 26 1016.1
20260509003005 65 285 3.0 11.0 0.00 0.00 0.00 25 1016.2
20260509001517 65 316 3.0 11.0 0.00 0.00 0.00 25 1016.3
20260509000009 66 318 4.0 9.0 0.00 0.00 0.00 27 1016.3
20260508234520 64 314 5.0 13.0 0.00 0.00 0.00 29 1016.4
20260508233026 64 277 5.0 8.0 0.00 0.00 0.00 32 1016.4
20260508231509 64 277 5.0 10.0 0.00 0.00 0.00 33 1016.3
20260508230023 65 248 5.0 14.0 0.00 0.00 0.00 30 1016.2
20260508224508 66 283 9.0 12.0 0.00 0.00 0.00 30 1016.3
20260508223012 66 315 6.0 12.0 0.00 0.00 0.00 30 1016.2
20260508221527 67 316 5.0 14.0 0.00 0.00 0.00 28 1016.1
20260508220010 66 276 3.0 10.0 0.00 0.00 0.00 28 1016.2
20260508214512 66 288 5.0 7.0 0.00 0.00 0.00 27 1016.3
20260508213021 67 321 9.0 15.0 0.00 0.00 0.00 27 1016.5
20260508211520 67 253 4.0 8.0 0.00 0.00 0.00 27 1016.5
20260508210012 66 281 6.0 11.0 0.00 0.00 0.00 27 1016.8
20260508204514 66 246 5.0 12.0 0.00 0.00 0.00 26 1016.9
20260508203012 66 290 4.0 12.0 0.00 0.00 0.00 26 1016.9
20260508201515 66 223 5.0 18.0 0.00 0.00 0.00 27 1017.2
20260508200013 65 274 5.0 13.0 0.00 0.00 0.00 26 1017.1
20260508194516 65 308 4.0 9.0 0.00 0.00 0.00 30 1017.3
20260508193013 65 289 5.0 15.0 0.00 0.00 0.00 27 1017.3
20260508191523 63 249 5.0 14.0 0.00 0.00 0.00 30 1017.4
20260508190014 64 278 3.0 9.0 0.00 0.00 0.00 27 1017.6
20260508184516 64 206 2.0 12.0 0.00 0.00 0.00 31 1017.6
20260508183016 64 136 0.0 6.0 0.00 0.00 0.00 32 1017.8
20260508181520 63 162 6.0 9.0 0.00 0.00 0.00 35 1018.0
20260508180018 62 84 1.0 7.0 0.00 0.00 0.00 34 1018.0
20260508174524 61 200 1.0 6.0 0.00 0.00 0.00 37 1018.1
20260508173022 62 117 3.0 7.0 0.00 0.00 0.00 36 1018.4
20260508171518 61 142 3.0 7.0 0.00 0.00 0.00 38 1018.6
20260508170024 59 167 2.0 3.0 0.00 0.00 0.00 48 1018.7
20260508164529 57 243 1.0 3.0 0.00 0.00 0.00 51 1018.8
20260508163017 55 136 1.0 3.0 0.00 0.00 0.00 56 1018.9
20260508161521 52 181 0.0 3.0 0.00 0.00 0.00 56 1019.1
20260508160024 51 162 1.0 3.0 0.00 0.00 0.00 59 1019.2
20260508154508 50 166 1.0 2.0 0.00 0.00 0.00 59 1019.2
20260508153008 48 93 0.0 2.0 0.00 0.00 0.00 64 1019.4
20260508151514 45 281 0.0 0.0 0.00 0.00 0.00 68 1019.5
20260508150019 42 46 0.0 1.0 0.00 0.00 0.00 72 1019.7
20260508144521 40 32 0.0 0.0 0.00 0.00 0.00 78 1019.9
20260508143022 36 33 0.0 0.0 0.00 0.00 0.00 85 1020.0
20260508141516 35 33 0.0 0.0 0.00 0.00 0.00 86 1020.0
20260508140018 34 73 0.0 0.0 0.00 0.00 0.00 86 1020.0
20260508134522 33 77 0.0 0.0 0.00 0.00 0.00 85 1020.0
20260508133028 34 81 0.0 0.0 0.00 0.00 0.00 84 1019.9
20260508131517 34 92 0.0 0.0 0.00 0.00 0.00 83 1019.7
20260508130014 34 92 0.0 0.0 0.00 0.00 0.00 83 1019.6
20260508124517 34 91 0.0 0.0 0.00 0.00 0.00 84 1019.5
20260508123022 34 91 0.0 0.0 0.00 0.00 0.00 85 1019.4
20260508121526 33 128 0.0 0.0 0.00 0.00 0.00 86 1019.1
20260508120009 33 134 0.0 0.0 0.00 0.00 0.00 84 1018.9
20260508114515 34 134 0.0 0.0 0.00 0.00 0.00 84 1018.8
20260508113019 35 136 0.0 0.0 0.00 0.00 0.00 83 1018.8
20260508111524 35 136 0.0 0.0 0.00 0.00 0.00 82 1018.7
20260508110029 36 120 0.0 0.0 0.00 0.00 0.00 82 1018.8
20260508104513 37 148 0.0 0.0 0.00 0.00 0.00 81 1018.7
20260508103015 36 115 0.0 0.0 0.00 0.00 0.00 82 1018.7
20260508101522 36 118 0.0 0.0 0.00 0.00 0.00 81 1018.6
20260508100022 37 120 0.0 0.0 0.00 0.00 0.00 80 1018.5
20260508094528 37 120 0.0 0.0 0.00 0.00 0.00 81 1018.1
20260508093027 38 120 0.0 0.0 0.00 0.00 0.00 80 1018.1
20260508091518 39 120 0.0 0.0 0.00 0.00 0.00 79 1017.9
20260508090022 38 120 0.0 0.0 0.00 0.00 0.00 81 1017.8
20260508084526 38 139 0.0 0.0 0.00 0.00 0.00 79 1017.8
20260508083028 39 172 0.0 0.0 0.00 0.00 0.00 78 1017.7
20260508081527 39 172 0.0 0.0 0.00 0.00 0.00 78 1017.6
20260508080030 41 87 0.0 0.0 0.00 0.00 0.00 74 1017.6
20260508074523 42 86 0.0 0.0 0.00 0.00 0.00 71 1017.5
20260508073028 42 60 0.0 0.0 0.00 0.00 0.00 71 1017.3
20260508071529 42 121 0.0 1.0 0.00 0.00 0.00 75 1017.3
20260508070041 42 72 0.0 2.0 0.00 0.00 0.00 73 1017.2
20260508064519 43 56 0.0 2.0 0.00 0.00 0.00 71 1017.2
20260508063026 44 224 0.0 2.0 0.00 0.00 0.00 70 1017.1
20260508061528 46 70 0.0 0.0 0.00 0.00 0.00 66 1017.0
20260508060020 47 70 0.0 1.0 0.00 0.00 0.00 61 1017.0
20260508054527 48 2 0.0 2.0 0.00 0.00 0.00 60 1016.8
20260508053022 48 299 0.0 2.0 0.00 0.00 0.00 61 1016.8
20260508051506 47 13 2.0 4.0 0.00 0.00 0.00 64 1016.7
20260508050009 48 226 0.0 1.0 0.00 0.00 0.00 63 1016.7
20260508044516 49 257 0.0 1.0 0.00 0.00 0.00 62 1016.8